Station BGNN4 - 8519483 - BERGEN POINT WEST REACH- NY

Sailing guide
Sailing guide
english français italiano spagnolo
english français italiano español
Sea - Seek
Station BGNN4 - 8519483 - BERGEN POINT WEST REACH- NY
Station BGNN4 - 8519483 - BERGEN POINT WEST REACH- NY

Weather report - Station BGNN4 - 8519483 - BERGEN POINT WEST REACH- NY

Time Wind speed knots Wind direction Pressure ----
November 28, 2014 6:48 pm EST 1021 Air Temperature:-0.2
November 28, 2014 5:48 pm EST 1024 Air Temperature:0.2
November 28, 2014 4:48 pm EST 1023 Air Temperature:0.8
November 28, 2014 3:48 pm EST 1022 Air Temperature:1.5
November 28, 2014 2:42 pm EST 1022 Air Temperature:2.7
November 28, 2014 1:42 pm EST 1021 Air Temperature:3
November 28, 2014 12:48 pm EST 1021 Air Temperature:2.4
November 28, 2014 11:48 am EST 1014 Air Temperature:2.9
November 28, 2014 10:48 am EST 1022 Air Temperature:2.2
November 28, 2014 9:48 am EST 1022 Air Temperature:1.4
November 28, 2014 7:48 am EST 1021 Air Temperature:0.4
November 28, 2014 5:48 am EST 1020 Air Temperature:-0.3
November 28, 2014 4:48 am EST 1019 Air Temperature:-0.7
November 28, 2014 3:48 am EST 1019 Air Temperature:-0.5
November 28, 2014 2:48 am EST 1019 Air Temperature:0.1
November 28, 2014 1:48 am EST 1019 Air Temperature:0.3
November 28, 2014 12:48 am EST 1018 Air Temperature:0.6
November 28, 2014 12:42 am EST 1018 Air Temperature:0.5
November 27, 2014 11:48 pm EST 1018 Air Temperature:1
November 27, 2014 10:48 pm EST 1018 Air Temperature:1.6
November 27, 2014 9:48 pm EST 1020 Air Temperature:2.5
November 27, 2014 6:48 pm EST 1013 Air Temperature:2.8
November 27, 2014 4:48 pm EST 1011 Air Temperature:3.3
November 27, 2014 3:48 pm EST 1016 Air Temperature:3.4